Tracking 25953 objects as of 16-Aug-2022
HD Live streaming from Space Station
objects crossing your sky now

ONEWEB-0456

Track ONEWEB-0456 now!
10-day predictions
ONEWEB-0456 is classified as:


NORAD ID: 51646
Int'l Code: 2022-012AA
Perigee: 1,227.3 km
Apogee: 1,230.4 km
Inclination: 87.9 °
Period: 109.9 minutes
Semi major axis: 7599 km
RCS: Unknown
Launch date: February 10, 2022
Source: United Kingdom (UK)
Launch site: FRENCH GUIANA (FRGUI)
aabbcc
Your satellite tracking list
Your tracking list is empty




NASA's NSSDC Master Catalog

Two Line Element Set (TLE):
1 51646U 22012AA  22228.25002315  .00000074  00000-0  17605-3 0  9996
2 51646  87.8827 314.8161 0001988  90.1503 227.7993 13.10372615 27166
Source of the keplerian elements: AFSPC